Regional Weather Roundup
Issued by NWS

Home | Current Version | Previous Version | Graphics & Text | Print | Product List | Glossary On
Versions: 1 2 3 4 5 6 7 8 9 10 11 12 13 14 15 16 17 18 19 20 21 22 23 24 25 26 27 28 29 30 31 32 33 34 35 36 37 38 39 40 41 42 43 44 45 46 47 48 49 50
000
ASUS43 KTOP 260959
RWRKS

WEATHER ROUNDUP FOR KANSAS
NATIONAL WEATHER SERVICE GOODLAND KS
500 AM CDT SUN MAR 26 2017

NOTE:  "FAIR" INDICATES FEW OR NO CLOUDS BELOW 12,000 FEET WITH NO
SIGNIFICANT WEATHER AND/OR OBSTRUCTIONS TO VISIBILITY.

KSZ001>006-013>018-027>032-041>047-261100-
NORTHWEST KANSAS

CITY           SKY/WX    TMP DP  RH WIND       PRES   REMARKS
GOODLAND       MOCLDY    37  37 100 SE6       29.81F FOG
HAYS             N/A     42  39  89 S5        29.88S
HILL CITY      CLOUDY    40  40 100 E5        29.88S FOG
RUSSELL        CLOUDY    40  39  97 E3        29.86F FOG
$$

KSZ061>065-074>080-084>089-261100-
SOUTHWEST KANSAS

CITY           SKY/WX    TMP DP  RH WIND       PRES   REMARKS
DODGE CITY     FOG       37  37 100 SE9       29.84F VSB 1/4
ELKHART          N/A     37  27  67 SE17        N/A  WCI  27
GARDEN CITY    CLEAR     38  36  92 E10       29.80F WCI  31
GREAT BEND     LGT RAIN  41  39  93 S5        29.89S FOG
LIBERAL        CLOUDY    39  34  81 E12       29.78F WCI  32
$$

KSZ066>073-081>083-090>101-261100-
SOUTHEAST KANSAS

CITY           SKY/WX    TMP DP  RH WIND       PRES   REMARKS
CHANUTE        CLOUDY    46  45  96 CALM      29.91F FOG
COFFEYVILLE    CLOUDY    48  44  86 NW3       29.92F
HUTCHINSON     CLOUDY    42  41  96 SW3       29.89F
MEDICINE LODGE   N/A     42  39  89 CALM      29.88F
NEWTON         CLOUDY    42  41  96 CALM      29.89F FOG
PARSONS        CLOUDY    47  45  93 CALM      29.93S
WICHITA INTL   CLOUDY    43  42  97 CALM      29.88F
WICHITA JABRA  CLOUDY    43  43 100 CALM      29.88F FOG
WICHITA MCCONL CLOUDY    45  43  93 CALM      29.88F
WINFIELD       CLOUDY    45  41  86 S3        29.90F
$$

KSZ007>012-019>026-033>040-048>060-102>105-261100-
NORTHEAST KANSAS

CITY           SKY/WX    TMP DP  RH WIND       PRES   REMARKS
CONCORDIA      CLOUDY    40  40 100 CALM      29.89F FOG
EMPORIA        CLOUDY    43  43 100 W3        29.90S FOG
LAWRENCE       CLOUDY    44  42  93 W5        29.89F
MANHATTAN      CLOUDY    43  40  89 CALM      29.91S
OLATHE IND     CLOUDY    43  41  93 W8        29.90R
OLATHE EXE     CLOUDY    42  42 100 W9        29.89R
SALINA         CLOUDY    44  42  93 N3        29.90F
TOPEKA BILLARD CLOUDY    44  43  96 NW5       29.89S
TOPEKA FORBES  CLOUDY    45  42  89 NW5       29.89F
$$



USA.gov is the U.S. government's official web portal to all federal, state and local government web resources and services.